Location: Invercargill
(46.4000°S, 168.3500°E)
Time: 22:17:06
(UTC+12:00)

H-2A R/B - Pass Details

Date: 24 January 2019
Orbit: 733 x 838 km, 98.3° (Epoch: 21 April)

Event Time Altitude Azimuth Distance (km) Brightness Sun altitude
Rises 22:34:05 0° 160° (SSE) 3,273 5.6 -9.8°
Reaches altitude 10° 22:36:37 10° 151° (SSE) 2,323 4.7 -10.1°
Maximum altitude 22:41:19 36° 84° (E) 1,179 2.6 -10.7°
Enters shadow 22:45:35 12° 18° (NNE) 2,148 3.8 -11.2°
